| time (UTC) | temp F | wind direction | speed MPH | gust MPH | rain 1hr in | rain 24hr in | rain mn in | humidity % | barometer mb |
| 20260507060111 | 68 | 0 | 4.0 | 6.0 | 0.00 | 0.00 | 0.00 | 59 | 1023.2 |
| 20260507055606 | 67 | 348 | 5.0 | 6.0 | 0.00 | 0.00 | 0.00 | 60 | 1023.0 |
| 20260507055102 | 67 | 347 | 3.0 | 5.0 | 0.00 | 0.00 | 0.00 | 61 | 1023.0 |
| 20260507054558 | 67 | 359 | 3.0 | 3.0 | 0.00 | 0.00 | 0.00 | 62 | 1022.7 |
| 20260507054056 | 67 | 62 | 2.0 | 3.0 | 0.00 | 0.00 | 0.00 | 65 | 1023.1 |
| 20260507053553 | 65 | 160 | 3.0 | 7.0 | 0.00 | 0.00 | 0.00 | 67 | 1022.7 |
| 20260507053052 | 65 | 345 | 3.0 | 7.0 | 0.00 | 0.00 | 0.00 | 67 | 1022.9 |
| 20260507052549 | 65 | 343 | 4.0 | 7.0 | 0.00 | 0.00 | 0.00 | 68 | 1022.7 |
| 20260507052046 | 65 | 295 | 6.0 | 8.0 | 0.00 | 0.00 | 0.00 | 68 | 1022.9 |
| 20260507051543 | 65 | 319 | 4.0 | 6.0 | 0.00 | 0.00 | 0.00 | 69 | 1022.8 |
| 20260507051040 | 65 | 304 | 4.0 | 7.0 | 0.00 | 0.00 | 0.00 | 69 | 1022.8 |
| 20260507050537 | 65 | 114 | 0.0 | 1.0 | 0.00 | 0.00 | 0.00 | 69 | 1022.8 |
| 20260507050033 | 66 | 293 | 1.0 | 2.0 | 0.00 | 0.00 | 0.00 | 68 | 1022.8 |
| 20260507045530 | 66 | 114 | 1.0 | 3.0 | 0.00 | 0.00 | 0.00 | 67 | 1022.7 |
| 20260507045027 | 64 | 138 | 0.0 | 1.0 | 0.00 | 0.00 | 0.00 | 70 | 1022.7 |
| 20260507044524 | 64 | 134 | 0.0 | 3.0 | 0.00 | 0.00 | 0.00 | 71 | 1022.7 |
| 20260507044021 | 63 | 322 | 3.0 | 5.0 | 0.00 | 0.00 | 0.00 | 71 | 1022.6 |
| 20260507043516 | 62 | 240 | 2.0 | 2.0 | 0.00 | 0.00 | 0.00 | 72 | 1022.7 |
| 20260507043014 | 62 | 1 | 2.0 | 5.0 | 0.00 | 0.00 | 0.00 | 72 | 1022.8 |
| 20260507042510 | 62 | 158 | 0.0 | 1.0 | 0.00 | 0.00 | 0.00 | 73 | 1022.6 |
| 20260507042005 | 61 | 212 | 2.0 | 3.0 | 0.00 | 0.00 | 0.00 | 73 | 1022.5 |
| 20260507041503 | 61 | 285 | 5.0 | 6.0 | 0.00 | 0.00 | 0.00 | 73 | 1022.8 |
| 20260507040959 | 61 | 330 | 2.0 | 2.0 | 0.00 | 0.00 | 0.00 | 74 | 1022.5 |
| 20260507040455 | 60 | 292 | 3.0 | 5.0 | 0.00 | 0.00 | 0.00 | 74 | 1022.3 |
| 20260507035951 | 60 | 304 | 4.0 | 7.0 | 0.00 | 0.00 | 0.00 | 75 | 1022.4 |
| 20260507035448 | 59 | 13 | 7.0 | 8.0 | 0.00 | 0.00 | 0.00 | 75 | 1022.4 |
| 20260507034945 | 59 | 320 | 7.0 | 8.0 | 0.00 | 0.00 | 0.00 | 76 | 1022.3 |
| 20260507034442 | 59 | 3 | 4.0 | 8.0 | 0.00 | 0.00 | 0.00 | 76 | 1022.4 |
| 20260507033940 | 58 | 312 | 4.0 | 8.0 | 0.00 | 0.00 | 0.00 | 77 | 1022.1 |
| 20260507033437 | 58 | 16 | 5.0 | 6.0 | 0.00 | 0.00 | 0.00 | 77 | 1022.1 |
| 20260507032934 | 58 | 330 | 4.0 | 8.0 | 0.00 | 0.00 | 0.00 | 78 | 1022.2 |
| 20260507032431 | 57 | 314 | 6.0 | 8.0 | 0.00 | 0.00 | 0.00 | 78 | 1022.2 |
| 20260507031927 | 57 | 324 | 5.0 | 7.0 | 0.00 | 0.00 | 0.00 | 78 | 1022.1 |
| 20260507031426 | 57 | 316 | 7.0 | 8.0 | 0.00 | 0.00 | 0.00 | 78 | 1022.1 |
| 20260507030921 | 57 | 343 | 3.0 | 6.0 | 0.00 | 0.00 | 0.00 | 78 | 1022.0 |
| 20260507030418 | 57 | 309 | 6.0 | 7.0 | 0.00 | 0.00 | 0.00 | 79 | 1022.0 |
| 20260507025915 | 57 | 325 | 5.0 | 7.0 | 0.00 | 0.00 | 0.00 | 79 | 1022.3 |
| 20260507025412 | 57 | 329 | 6.0 | 8.0 | 0.00 | 0.00 | 0.00 | 80 | 1021.8 |
| 20260507024910 | 57 | 323 | 5.0 | 8.0 | 0.00 | 0.00 | 0.00 | 80 | 1022.0 |
| 20260507024407 | 57 | 340 | 6.0 | 9.0 | 0.00 | 0.00 | 0.00 | 80 | 1022.0 |
| 20260507023903 | 57 | 317 | 5.0 | 8.0 | 0.00 | 0.00 | 0.00 | 80 | 1021.8 |
| 20260507023400 | 57 | 319 | 8.0 | 8.0 | 0.00 | 0.00 | 0.00 | 80 | 1021.8 |
| 20260507022857 | 57 | 315 | 9.0 | 11.0 | 0.00 | 0.00 | 0.00 | 81 | 1021.7 |
| 20260507022353 | 57 | 344 | 7.0 | 9.0 | 0.00 | 0.00 | 0.00 | 81 | 1021.5 |
| 20260507021849 | 57 | 340 | 8.0 | 9.0 | 0.00 | 0.00 | 0.00 | 81 | 1021.6 |
| 20260507021345 | 57 | 329 | 9.0 | 9.0 | 0.00 | 0.00 | 0.00 | 81 | 1021.5 |
| 20260507020843 | 57 | 338 | 7.0 | 9.0 | 0.00 | 0.00 | 0.00 | 81 | 1021.5 |
| 20260507020339 | 57 | 330 | 5.0 | 9.0 | 0.00 | 0.00 | 0.00 | 81 | 1021.5 |
| 20260507015836 | 57 | 329 | 7.0 | 8.0 | 0.00 | 0.00 | 0.00 | 81 | 1021.6 |
| 20260507015334 | 56 | 319 | 7.0 | 9.0 | 0.00 | 0.00 | 0.00 | 80 | 1021.7 |
| 20260507014831 | 56 | 327 | 6.0 | 9.0 | 0.00 | 0.00 | 0.00 | 80 | 1021.6 |
| 20260507014327 | 57 | 334 | 8.0 | 9.0 | 0.00 | 0.00 | 0.00 | 80 | 1021.6 |
| 20260507013824 | 57 | 353 | 7.0 | 9.0 | 0.00 | 0.00 | 0.00 | 79 | 1021.4 |
| 20260507013321 | 57 | 330 | 8.0 | 10.0 | 0.00 | 0.00 | 0.00 | 79 | 1021.5 |
| 20260507012819 | 57 | 330 | 7.0 | 9.0 | 0.00 | 0.00 | 0.00 | 79 | 1021.5 |
| 20260507012314 | 57 | 354 | 7.0 | 8.0 | 0.00 | 0.00 | 0.00 | 78 | 1021.6 |
| 20260507011812 | 57 | 347 | 6.0 | 9.0 | 0.00 | 0.00 | 0.00 | 78 | 1021.3 |
| 20260507011308 | 57 | 336 | 6.0 | 9.0 | 0.00 | 0.00 | 0.00 | 78 | 1021.4 |
| 20260507010808 | 57 | 334 | 8.0 | 10.0 | 0.00 | 0.00 | 0.00 | 78 | 1021.4 |
| 20260507010304 | 57 | 338 | 6.0 | 8.0 | 0.00 | 0.00 | 0.00 | 79 | 1021.4 |
| 20260507005802 | 57 | 11 | 5.0 | 7.0 | 0.00 | 0.00 | 0.00 | 79 | 1021.4 |
| 20260507005258 | 57 | 340 | 4.0 | 8.0 | 0.00 | 0.00 | 0.00 | 78 | 1021.3 |
| 20260507004754 | 57 | 322 | 4.0 | 7.0 | 0.00 | 0.00 | 0.00 | 78 | 1021.6 |
| 20260507004252 | 57 | 344 | 4.0 | 7.0 | 0.00 | 0.00 | 0.00 | 78 | 1021.6 |
| 20260507003748 | 57 | 324 | 6.0 | 9.0 | 0.00 | 0.00 | 0.00 | 77 | 1021.5 |
| 20260507003243 | 57 | 326 | 5.0 | 7.0 | 0.00 | 0.00 | 0.00 | 77 | 1021.5 |
| 20260507002740 | 57 | 338 | 5.0 | 7.0 | 0.00 | 0.00 | 0.00 | 78 | 1021.5 |
| 20260507002236 | 57 | 7 | 7.0 | 10.0 | 0.00 | 0.00 | 0.00 | 78 | 1021.5 |
| 20260507001733 | 57 | 333 | 4.0 | 8.0 | 0.00 | 0.00 | 0.00 | 78 | 1021.5 |
| 20260507001230 | 57 | 325 | 7.0 | 9.0 | 0.00 | 0.00 | 0.00 | 78 | 1021.6 |
| 20260507000727 | 57 | 299 | 8.0 | 9.0 | 0.00 | 0.00 | 0.00 | 78 | 1021.6 |
| 20260507000222 | 57 | 309 | 6.0 | 8.0 | 0.00 | 0.00 | 0.00 | 78 | 1021.7 |
| 20260506235719 | 57 | 312 | 9.0 | 11.0 | 0.00 | 0.00 | 0.00 | 78 | 1021.7 |
| 20260506235214 | 57 | 319 | 5.0 | 9.0 | 0.00 | 0.00 | 0.00 | 78 | 1021.7 |
| 20260506234712 | 57 | 322 | 9.0 | 11.0 | 0.00 | 0.00 | 0.00 | 78 | 1021.5 |
| 20260506234209 | 57 | 347 | 9.0 | 11.0 | 0.00 | 0.00 | 0.00 | 78 | 1021.6 |
| 20260506233707 | 57 | 338 | 7.0 | 11.0 | 0.00 | 0.00 | 0.00 | 77 | 1021.7 |
| 20260506233203 | 57 | 347 | 8.0 | 10.0 | 0.00 | 0.00 | 0.00 | 77 | 1021.5 |
| 20260506232659 | 57 | 330 | 1.0 | 5.0 | 0.00 | 0.00 | 0.00 | 77 | 1021.4 |
| 20260506232154 | 57 | 325 | 0.0 | 5.0 | 0.00 | 0.00 | 0.00 | 77 | 1021.4 |
| 20260506231652 | 57 | 338 | 0.0 | 3.0 | 0.00 | 0.00 | 0.00 | 78 | 1021.6 |
| 20260506231151 | 57 | 333 | 1.0 | 5.0 | 0.00 | 0.00 | 0.00 | 79 | 1021.5 |
| 20260506230647 | 57 | 344 | 2.0 | 6.0 | 0.00 | 0.00 | 0.00 | 80 | 1021.6 |
| 20260506230144 | 57 | 343 | 5.0 | 7.0 | 0.00 | 0.00 | 0.00 | 80 | 1021.6 |
| 20260506225640 | 57 | 344 | 3.0 | 7.0 | 0.00 | 0.00 | 0.00 | 80 | 1021.7 |
| 20260506225137 | 57 | 358 | 3.0 | 8.0 | 0.00 | 0.00 | 0.00 | 80 | 1021.7 |
| 20260506224633 | 57 | 7 | 3.0 | 7.0 | 0.00 | 0.00 | 0.00 | 80 | 1021.6 |
| 20260506224130 | 57 | 353 | 4.0 | 7.0 | 0.00 | 0.00 | 0.00 | 79 | 1021.7 |
| 20260506223626 | 57 | 328 | 4.0 | 7.0 | 0.00 | 0.00 | 0.00 | 79 | 1021.8 |
| 20260506223122 | 58 | 317 | 6.0 | 8.0 | 0.00 | 0.00 | 0.00 | 78 | 1021.7 |
| 20260506222620 | 57 | 6 | 5.0 | 7.0 | 0.00 | 0.00 | 0.00 | 78 | 1021.6 |
| 20260506222116 | 57 | 340 | 2.0 | 6.0 | 0.00 | 0.00 | 0.00 | 78 | 1021.8 |
| 20260506221614 | 57 | 336 | 1.0 | 7.0 | 0.00 | 0.00 | 0.00 | 79 | 1021.7 |
| 20260506221112 | 57 | 329 | 0.0 | 5.0 | 0.00 | 0.00 | 0.00 | 78 | 1021.7 |
| 20260506220608 | 57 | 351 | 0.0 | 6.0 | 0.00 | 0.00 | 0.00 | 77 | 1021.7 |
| 20260506215600 | 58 | 325 | 3.0 | 5.0 | 0.00 | 0.00 | 0.00 | 76 | 1021.7 |
| 20260506215055 | 58 | 336 | 3.0 | 9.0 | 0.00 | 0.00 | 0.00 | 75 | 1021.7 |
| 20260506214553 | 58 | 324 | 6.0 | 8.0 | 0.00 | 0.00 | 0.00 | 74 | 1022.0 |
| 20260506214050 | 59 | 328 | 1.0 | 9.0 | 0.00 | 0.00 | 0.00 | 72 | 1021.7 |
| 20260506213548 | 59 | 329 | 0.0 | 8.0 | 0.00 | 0.00 | 0.00 | 70 | 1021.7 |
| 20260506213045 | 59 | 326 | 0.0 | 2.0 | 0.00 | 0.00 | 0.00 | 71 | 1021.7 |
| 20260506212542 | 59 | 314 | 0.0 | 0.0 | 0.00 | 0.00 | 0.00 | 71 | 1021.7 |
| 20260506212036 | 59 | 319 | 0.0 | 0.0 | 0.00 | 0.00 | 0.00 | 72 | 1021.8 |
| 20260506211533 | 59 | 331 | 0.0 | 0.0 | 0.00 | 0.00 | 0.00 | 75 | 1021.9 |
| 20260506211030 | 59 | 324 | 0.0 | 2.0 | 0.00 | 0.00 | 0.00 | 77 | 1021.9 |
| 20260506210526 | 59 | 330 | 0.0 | 0.0 | 0.00 | 0.00 | 0.00 | 78 | 1021.8 |
| 20260506210023 | 59 | 304 | 0.0 | 0.0 | 0.00 | 0.00 | 0.00 | 78 | 1021.8 |
| 20260506205520 | 59 | 296 | 0.0 | 3.0 | 0.00 | 0.00 | 0.00 | 77 | 1021.8 |
| 20260506205015 | 60 | 291 | 3.0 | 3.0 | 0.00 | 0.00 | 0.00 | 76 | 1021.9 |
| 20260506204514 | 60 | 287 | 3.0 | 3.0 | 0.00 | 0.00 | 0.00 | 75 | 1021.7 |
| 20260506204010 | 60 | 311 | 2.0 | 2.0 | 0.00 | 0.00 | 0.00 | 75 | 1021.8 |
| 20260506203508 | 60 | 316 | 2.0 | 2.0 | 0.00 | 0.00 | 0.00 | 74 | 1022.0 |
| 20260506203004 | 60 | 316 | 1.0 | 2.0 | 0.00 | 0.00 | 0.00 | 73 | 1021.7 |
| 20260506202502 | 60 | 328 | 1.0 | 2.0 | 0.00 | 0.00 | 0.00 | 74 | 1021.9 |
| 20260506201958 | 60 | 334 | 1.0 | 1.0 | 0.00 | 0.00 | 0.00 | 75 | 1021.9 |
| 20260506201456 | 60 | 357 | 1.0 | 1.0 | 0.00 | 0.00 | 0.00 | 75 | 1021.9 |
| 20260506200952 | 60 | 355 | 1.0 | 1.0 | 0.00 | 0.00 | 0.00 | 75 | 1022.1 |
| 20260506200449 | 60 | 34 | 1.0 | 1.0 | 0.00 | 0.00 | 0.00 | 75 | 1022.0 |
| 20260506195945 | 60 | 348 | 2.0 | 2.0 | 0.00 | 0.00 | 0.00 | 76 | 1021.9 |
| 20260506195442 | 60 | 86 | 0.0 | 0.0 | 0.00 | 0.00 | 0.00 | 76 | 1021.9 |
| 20260506194938 | 60 | 102 | 0.0 | 0.0 | 0.00 | 0.00 | 0.00 | 75 | 1022.0 |
| 20260506194436 | 60 | 214 | 0.0 | 0.0 | 0.00 | 0.00 | 0.00 | 75 | 1021.9 |
| 20260506193933 | 60 | 238 | 0.0 | 0.0 | 0.00 | 0.00 | 0.00 | 75 | 1021.9 |
| 20260506193430 | 60 | 227 | 0.0 | 0.0 | 0.00 | 0.00 | 0.00 | 74 | 1021.8 |
| 20260506192926 | 61 | 192 | 0.0 | 0.0 | 0.00 | 0.00 | 0.00 | 74 | 1021.9 |
| 20260506192423 | 61 | 200 | 0.0 | 0.0 | 0.00 | 0.00 | 0.00 | 74 | 1022.0 |
| 20260506191920 | 61 | 182 | 0.0 | 0.0 | 0.00 | 0.00 | 0.00 | 73 | 1021.7 |
| 20260506191416 | 61 | 132 | 0.0 | 0.0 | 0.00 | 0.00 | 0.00 | 73 | 1021.9 |
| 20260506190914 | 61 | 159 | 0.0 | 0.0 | 0.00 | 0.00 | 0.00 | 73 | 1021.8 |
| 20260506190410 | 61 | 130 | 0.0 | 0.0 | 0.00 | 0.00 | 0.00 | 73 | 1021.9 |
| 20260506185907 | 61 | 127 | 0.0 | 0.0 | 0.00 | 0.00 | 0.00 | 73 | 1021.8 |
| 20260506185404 | 61 | 137 | 0.0 | 1.0 | 0.00 | 0.00 | 0.00 | 73 | 1021.8 |
| 20260506184901 | 61 | 183 | 1.0 | 1.0 | 0.00 | 0.00 | 0.00 | 73 | 1021.6 |
| 20260506184358 | 61 | 169 | 0.0 | 1.0 | 0.00 | 0.00 | 0.00 | 72 | 1021.6 |
| 20260506183855 | 61 | 180 | 1.0 | 1.0 | 0.00 | 0.00 | 0.00 | 72 | 1021.7 |
| 20260506183350 | 61 | 151 | 0.0 | 1.0 | 0.00 | 0.00 | 0.00 | 72 | 1021.5 |
| 20260506182848 | 61 | 164 | 0.0 | 0.0 | 0.00 | 0.00 | 0.00 | 72 | 1021.5 |
| 20260506182345 | 61 | 164 | 0.0 | 0.0 | 0.00 | 0.00 | 0.00 | 71 | 1021.5 |
| 20260506181842 | 62 | 157 | 0.0 | 0.0 | 0.00 | 0.00 | 0.00 | 71 | 1021.6 |
| 20260506181340 | 62 | 157 | 0.0 | 0.0 | 0.00 | 0.00 | 0.00 | 71 | 1021.4 |
| 20260506180837 | 62 | 163 | 0.0 | 1.0 | 0.00 | 0.00 | 0.00 | 70 | 1021.3 |
| 20260506180333 | 62 | 185 | 1.0 | 1.0 | 0.00 | 0.00 | 0.00 | 71 | 1021.3 |
| 20260506175829 | 62 | 164 | 0.0 | 1.0 | 0.00 | 0.00 | 0.00 | 71 | 1021.4 |
| 20260506175326 | 62 | 186 | 0.0 | 1.0 | 0.00 | 0.00 | 0.00 | 70 | 1021.4 |
| 20260506174824 | 62 | 175 | 0.0 | 0.0 | 0.00 | 0.00 | 0.00 | 69 | 1021.0 |
| 20260506174321 | 63 | 154 | 0.0 | 1.0 | 0.00 | 0.00 | 0.00 | 69 | 1021.5 |
| 20260506173818 | 63 | 218 | 4.0 | 6.0 | 0.00 | 0.00 | 0.00 | 68 | 1021.3 |
| 20260506173315 | 63 | 223 | 4.0 | 6.0 | 0.00 | 0.00 | 0.00 | 68 | 1021.2 |
| 20260506172812 | 63 | 214 | 5.0 | 6.0 | 0.00 | 0.00 | 0.00 | 67 | 1021.3 |
| 20260506172309 | 63 | 218 | 3.0 | 6.0 | 0.00 | 0.00 | 0.00 | 68 | 1021.2 |
| 20260506171806 | 63 | 208 | 4.0 | 5.0 | 0.00 | 0.00 | 0.00 | 68 | 1021.0 |
| 20260506171303 | 63 | 209 | 3.0 | 5.0 | 0.00 | 0.00 | 0.00 | 68 | 1021.2 |
| 20260506170801 | 63 | 210 | 3.0 | 6.0 | 0.00 | 0.00 | 0.00 | 68 | 1021.0 |
| 20260506170257 | 63 | 239 | 5.0 | 6.0 | 0.00 | 0.00 | 0.00 | 67 | 1021.0 |
| 20260506165756 | 63 | 216 | 4.0 | 5.0 | 0.00 | 0.00 | 0.00 | 66 | 1021.1 |
| 20260506165253 | 64 | 178 | 5.0 | 7.0 | 0.00 | 0.00 | 0.00 | 66 | 1021.0 |
| 20260506164749 | 63 | 223 | 5.0 | 7.0 | 0.00 | 0.00 | 0.00 | 66 | 1021.0 |
| 20260506164246 | 64 | 233 | 5.0 | 7.0 | 0.00 | 0.00 | 0.00 | 65 | 1020.9 |
| 20260506163743 | 64 | 224 | 5.0 | 7.0 | 0.00 | 0.00 | 0.00 | 65 | 1020.9 |
| 20260506163238 | 64 | 215 | 5.0 | 7.0 | 0.00 | 0.00 | 0.00 | 65 | 1020.9 |
| 20260506162734 | 64 | 210 | 5.0 | 8.0 | 0.00 | 0.00 | 0.00 | 65 | 1020.8 |
| 20260506162232 | 64 | 179 | 5.0 | 8.0 | 0.00 | 0.00 | 0.00 | 65 | 1020.8 |
| 20260506161729 | 64 | 197 | 3.0 | 5.0 | 0.00 | 0.00 | 0.00 | 65 | 1020.8 |
| 20260506161226 | 64 | 188 | 6.0 | 10.0 | 0.00 | 0.00 | 0.00 | 65 | 1020.7 |
| 20260506160724 | 64 | 176 | 6.0 | 10.0 | 0.00 | 0.00 | 0.00 | 63 | 1020.6 |
| 20260506160220 | 64 | 200 | 7.0 | 9.0 | 0.00 | 0.00 | 0.00 | 63 | 1020.7 |
| 20260506155719 | 64 | 191 | 9.0 | 11.0 | 0.00 | 0.00 | 0.00 | 63 | 1020.5 |
| 20260506155216 | 65 | 177 | 8.0 | 9.0 | 0.00 | 0.00 | 0.00 | 63 | 1020.4 |
| 20260506153323 | 65 | 225 | 6.0 | 8.0 | 0.00 | 0.00 | 0.00 | 60 | 1020.4 |
| 20260506152820 | 65 | 175 | 9.0 | 11.0 | 0.00 | 0.00 | 0.00 | 60 | 1020.5 |
| 20260506152317 | 66 | 192 | 7.0 | 9.0 | 0.00 | 0.00 | 0.00 | 60 | 1020.6 |
| 20260506151816 | 66 | 208 | 7.0 | 10.0 | 0.00 | 0.00 | 0.00 | 59 | 1020.7 |
| 20260506151312 | 66 | 204 | 8.0 | 11.0 | 0.00 | 0.00 | 0.00 | 59 | 1020.6 |
| 20260506150809 | 66 | 191 | 7.0 | 11.0 | 0.00 | 0.00 | 0.00 | 59 | 1020.5 |
| 20260506150306 | 66 | 197 | 8.0 | 10.0 | 0.00 | 0.00 | 0.00 | 59 | 1020.8 |
| 20260506145803 | 66 | 202 | 10.0 | 11.0 | 0.00 | 0.00 | 0.00 | 59 | 1020.5 |
| 20260506145259 | 67 | 193 | 8.0 | 10.0 | 0.00 | 0.00 | 0.00 | 59 | 1020.5 |
| 20260506144757 | 66 | 203 | 10.0 | 11.0 | 0.00 | 0.00 | 0.00 | 59 | 1020.4 |
| 20260506144254 | 67 | 195 | 11.0 | 11.0 | 0.00 | 0.00 | 0.00 | 59 | 1020.5 |
| 20260506143752 | 67 | 215 | 8.0 | 11.0 | 0.00 | 0.00 | 0.00 | 59 | 1020.5 |
| 20260506143248 | 67 | 178 | 10.0 | 11.0 | 0.00 | 0.00 | 0.00 | 59 | 1020.6 |
| 20260506142747 | 67 | 189 | 11.0 | 13.0 | 0.00 | 0.00 | 0.00 | 60 | 1020.5 |
| 20260506142245 | 67 | 197 | 11.0 | 14.0 | 0.00 | 0.00 | 0.00 | 60 | 1020.2 |
| 20260506141743 | 67 | 182 | 9.0 | 13.0 | 0.00 | 0.00 | 0.00 | 61 | 1020.5 |
| 20260506141241 | 67 | 203 | 9.0 | 13.0 | 0.00 | 0.00 | 0.00 | 60 | 1020.3 |
| 20260506140738 | 67 | 181 | 8.0 | 10.0 | 0.00 | 0.00 | 0.00 | 59 | 1020.4 |
| 20260506140235 | 67 | 193 | 10.0 | 13.0 | 0.00 | 0.00 | 0.00 | 58 | 1020.4 |
| 20260506135732 | 68 | 171 | 12.0 | 14.0 | 0.00 | 0.00 | 0.00 | 56 | 1020.5 |
| 20260506135228 | 67 | 194 | 11.0 | 14.0 | 0.00 | 0.00 | 0.00 | 58 | 1020.3 |
| 20260506134725 | 69 | 172 | 8.0 | 10.0 | 0.00 | 0.00 | 0.00 | 57 | 1020.5 |
| 20260506134221 | 68 | 204 | 9.0 | 11.0 | 0.00 | 0.00 | 0.00 | 57 | 1020.5 |
| 20260506133719 | 68 | 165 | 9.0 | 13.0 | 0.00 | 0.00 | 0.00 | 58 | 1020.4 |
| 20260506133215 | 68 | 154 | 6.0 | 14.0 | 0.00 | 0.00 | 0.00 | 60 | 1020.5 |
| 20260506132712 | 68 | 217 | 9.0 | 10.0 | 0.00 | 0.00 | 0.00 | 59 | 1020.5 |
| 20260506132209 | 68 | 167 | 11.0 | 13.0 | 0.00 | 0.00 | 0.00 | 56 | 1020.5 |
| 20260506131707 | 68 | 163 | 9.0 | 11.0 | 0.00 | 0.00 | 0.00 | 56 | 1020.6 |
| 20260506131203 | 68 | 199 | 9.0 | 14.0 | 0.00 | 0.00 | 0.00 | 58 | 1020.5 |
| 20260506130700 | 68 | 235 | 9.0 | 11.0 | 0.00 | 0.00 | 0.00 | 56 | 1020.5 |
| 20260506130157 | 68 | 201 | 8.0 | 14.0 | 0.00 | 0.00 | 0.00 | 56 | 1020.6 |
| 20260506125655 | 68 | 205 | 7.0 | 10.0 | 0.00 | 0.00 | 0.00 | 55 | 1020.5 |
| 20260506125152 | 68 | 183 | 7.0 | 13.0 | 0.00 | 0.00 | 0.00 | 57 | 1020.3 |
| 20260506124650 | 68 | 157 | 9.0 | 11.0 | 0.00 | 0.00 | 0.00 | 56 | 1020.6 |
| 20260506124148 | 68 | 176 | 8.0 | 13.0 | 0.00 | 0.00 | 0.00 | 57 | 1020.7 |
| 20260506123645 | 68 | 189 | 10.0 | 13.0 | 0.00 | 0.00 | 0.00 | 59 | 1020.5 |
| 20260506123144 | 67 | 195 | 6.0 | 13.0 | 0.00 | 0.00 | 0.00 | 60 | 1020.4 |
| 20260506122640 | 68 | 187 | 11.0 | 14.0 | 0.00 | 0.00 | 0.00 | 58 | 1020.4 |
| 20260506122138 | 68 | 154 | 11.0 | 15.0 | 0.00 | 0.00 | 0.00 | 58 | 1020.6 |
| 20260506121635 | 68 | 172 | 9.0 | 11.0 | 0.00 | 0.00 | 0.00 | 58 | 1020.7 |
| 20260506121131 | 68 | 187 | 10.0 | 13.0 | 0.00 | 0.00 | 0.00 | 59 | 1020.7 |
| 20260506120629 | 68 | 163 | 9.0 | 14.0 | 0.00 | 0.00 | 0.00 | 56 | 1020.5 |
| 20260506120126 | 68 | 190 | 11.0 | 14.0 | 0.00 | 0.00 | 0.00 | 55 | 1020.8 |
| 20260506115625 | 68 | 140 | 8.0 | 10.0 | 0.00 | 0.00 | 0.00 | 56 | 1020.4 |
| 20260506115123 | 68 | 159 | 7.0 | 10.0 | 0.00 | 0.00 | 0.00 | 57 | 1020.6 |
| 20260506114620 | 69 | 184 | 9.0 | 13.0 | 0.00 | 0.00 | 0.00 | 59 | 1020.6 |
| 20260506114118 | 68 | 201 | 7.0 | 11.0 | 0.00 | 0.00 | 0.00 | 57 | 1020.8 |
| 20260506113616 | 68 | 162 | 8.0 | 11.0 | 0.00 | 0.00 | 0.00 | 57 | 1020.8 |
| 20260506113113 | 68 | 135 | 7.0 | 11.0 | 0.00 | 0.00 | 0.00 | 55 | 1020.6 |
| 20260506112609 | 67 | 112 | 9.0 | 13.0 | 0.00 | 0.00 | 0.00 | 57 | 1020.6 |
| 20260506112107 | 67 | 144 | 12.0 | 14.0 | 0.00 | 0.00 | 0.00 | 57 | 1020.8 |
| 20260506111604 | 67 | 136 | 7.0 | 13.0 | 0.00 | 0.00 | 0.00 | 60 | 1020.9 |
| 20260506111102 | 67 | 170 | 7.0 | 11.0 | 0.00 | 0.00 | 0.00 | 58 | 1020.7 |
| 20260506110559 | 66 | 134 | 10.0 | 16.0 | 0.00 | 0.00 | 0.00 | 60 | 1020.7 |
| 20260506110056 | 67 | 156 | 8.0 | 13.0 | 0.00 | 0.00 | 0.00 | 61 | 1020.9 |
| 20260506105552 | 67 | 146 | 13.0 | 14.0 | 0.00 | 0.00 | 0.00 | 57 | 1020.8 |
| 20260506105050 | 68 | 124 | 11.0 | 14.0 | 0.00 | 0.00 | 0.00 | 58 | 1020.9 |
| 20260506104548 | 68 | 134 | 10.0 | 14.0 | 0.00 | 0.00 | 0.00 | 58 | 1020.8 |
| 20260506104045 | 67 | 144 | 5.0 | 15.0 | 0.00 | 0.00 | 0.00 | 61 | 1021.0 |
| 20260506103542 | 67 | 129 | 13.0 | 16.0 | 0.00 | 0.00 | 0.00 | 59 | 1020.9 |
| 20260506103039 | 67 | 149 | 9.0 | 13.0 | 0.00 | 0.00 | 0.00 | 57 | 1020.7 |
| 20260506102537 | 66 | 135 | 9.0 | 15.0 | 0.00 | 0.00 | 0.00 | 59 | 1021.1 |
| 20260506102034 | 67 | 139 | 8.0 | 11.0 | 0.00 | 0.00 | 0.00 | 58 | 1020.9 |
| 20260506101531 | 68 | 128 | 10.0 | 13.0 | 0.00 | 0.00 | 0.00 | 58 | 1021.1 |
| 20260506101028 | 68 | 124 | 9.0 | 13.0 | 0.00 | 0.00 | 0.00 | 60 | 1020.8 |
| 20260506100526 | 68 | 126 | 11.0 | 13.0 | 0.00 | 0.00 | 0.00 | 59 | 1021.0 |
| 20260506100024 | 68 | 197 | 10.0 | 15.0 | 0.00 | 0.00 | 0.00 | 57 | 1021.0 |
| 20260506095523 | 67 | 132 | 11.0 | 14.0 | 0.00 | 0.00 | 0.00 | 59 | 1021.1 |
| 20260506095018 | 67 | 148 | 7.0 | 14.0 | 0.00 | 0.00 | 0.00 | 60 | 1021.1 |
| 20260506094517 | 67 | 169 | 10.0 | 15.0 | 0.00 | 0.00 | 0.00 | 61 | 1021.1 |
| 20260506094014 | 66 | 139 | 8.0 | 11.0 | 0.00 | 0.00 | 0.00 | 59 | 1021.0 |
| 20260506093512 | 66 | 149 | 12.0 | 17.0 | 0.00 | 0.00 | 0.00 | 59 | 1021.0 |
| 20260506093010 | 66 | 141 | 11.0 | 15.0 | 0.00 | 0.00 | 0.00 | 59 | 1021.1 |
| 20260506092507 | 67 | 173 | 7.0 | 14.0 | 0.00 | 0.00 | 0.00 | 57 | 1021.1 |
| 20260506092003 | 67 | 161 | 7.0 | 11.0 | 0.00 | 0.00 | 0.00 | 58 | 1021.1 |
| 20260506091502 | 67 | 127 | 8.0 | 15.0 | 0.00 | 0.00 | 0.00 | 56 | 1021.2 |
| 20260506090959 | 67 | 127 | 9.0 | 13.0 | 0.00 | 0.00 | 0.00 | 55 | 1021.1 |
| 20260506090457 | 67 | 151 | 7.0 | 14.0 | 0.00 | 0.00 | 0.00 | 54 | 1021.2 |
| 20260506085953 | 68 | 148 | 13.0 | 15.0 | 0.00 | 0.00 | 0.00 | 53 | 1021.2 |
| 20260506085450 | 68 | 164 | 7.0 | 13.0 | 0.00 | 0.00 | 0.00 | 50 | 1021.2 |
| 20260506084946 | 68 | 156 | 9.0 | 11.0 | 0.00 | 0.00 | 0.00 | 50 | 1021.2 |
| 20260506084443 | 68 | 193 | 11.0 | 14.0 | 0.00 | 0.00 | 0.00 | 52 | 1021.3 |
| 20260506083939 | 67 | 139 | 9.0 | 14.0 | 0.00 | 0.00 | 0.00 | 53 | 1021.0 |
| 20260506083437 | 67 | 163 | 10.0 | 13.0 | 0.00 | 0.00 | 0.00 | 52 | 1021.2 |
| 20260506082934 | 67 | 168 | 10.0 | 11.0 | 0.00 | 0.00 | 0.00 | 48 | 1021.4 |
| 20260506082431 | 68 | 188 | 8.0 | 11.0 | 0.00 | 0.00 | 0.00 | 50 | 1021.1 |
| 20260506081926 | 67 | 134 | 7.0 | 11.0 | 0.00 | 0.00 | 0.00 | 51 | 1021.4 |
| 20260506081425 | 67 | 184 | 11.0 | 13.0 | 0.00 | 0.00 | 0.00 | 51 | 1021.3 |
| 20260506080922 | 67 | 167 | 7.0 | 10.0 | 0.00 | 0.00 | 0.00 | 51 | 1021.1 |
| 20260506080418 | 67 | 167 | 10.0 | 11.0 | 0.00 | 0.00 | 0.00 | 49 | 1021.0 |
| 20260506073403 | 68 | 163 | 5.0 | 8.0 | 0.00 | 0.00 | 0.00 | 48 | 1021.0 |
| 20260506072900 | 68 | 202 | 5.0 | 9.0 | 0.00 | 0.00 | 0.00 | 48 | 1020.9 |
| 20260506072357 | 68 | 132 | 6.0 | 9.0 | 0.00 | 0.00 | 0.00 | 49 | 1020.8 |
| 20260506071854 | 67 | 143 | 5.0 | 8.0 | 0.00 | 0.00 | 0.00 | 48 | 1020.8 |
| 20260506071352 | 67 | 144 | 6.0 | 10.0 | 0.00 | 0.00 | 0.00 | 48 | 1020.9 |
| 20260506070849 | 67 | 180 | 5.0 | 9.0 | 0.00 | 0.00 | 0.00 | 47 | 1020.7 |
| 20260506070346 | 67 | 168 | 5.0 | 9.0 | 0.00 | 0.00 | 0.00 | 45 | 1020.7 |
| 20260506062323 | 69 | 138 | 2.0 | 5.0 | 0.00 | 0.00 | 0.00 | 47 | 1020.5 |
| 20260506061819 | 68 | 114 | 1.0 | 1.0 | 0.00 | 0.00 | 0.00 | 46 | 1020.3 |
| 20260506061316 | 67 | 232 | 4.0 | 5.0 | 0.00 | 0.00 | 0.00 | 48 | 1020.4 |
| 20260506060814 | 66 | 168 | 3.0 | 5.0 | 0.00 | 0.00 | 0.00 | 48 | 1020.4 |